Storm Lake, IA

9:31 AM CST on November 23, 2017 (GMT -0600)
Storm Lake Municipal

Weather History for KSLB - November, 2014

Change the Weather History Date:

Sunday, November 9, 2014

  Actual Average Record
Temperature  
Mean Temperature 42 °F -  
Max Temperature 48 °F 47 °F 71 °F (1999)
Min Temperature 37 °F 30 °F 15 °F (2017)
Degree Days  
Heating Degree Days 22    
Moisture  
Dew Point 31 °F    
Average Humidity 68    
Maximum Humidity 87    
Minimum Humidity 50    
Precipitation  
Precipitation 0.00 in - - ()
Sea Level Pressure  
Sea Level Pressure 29.76 in    
Wind  
Wind Speed 11 mph (North)    
Max Wind Speed 17 mph    
Max Gust Speed 21 mph    
Visibility 10 miles    
Events      
Averages and records for this station are not official NWS values.
T = Trace of Precipitation, MM = Missing Value Source: NWS Daily Summary

Daily Weather History Graph

Daily Weather History Graph

Search for Another Location

Airport or City:

Trip Planner

Search our weather history database for the weather conditions in past years. The results will help you decide how hot, cold, wet, or windy it might be!

Date:

Astronomy

Nov. 09, 2014 Rise Set
Actual Time 7:04 AM CST 5:04 PM CST
Civil Twilight 6:34 AM CST 5:34 PM CST
Nautical Twilight 6:01 AM CST 6:07 PM CST
Astronomical Twilight 5:28 AM CST 6:40 PM CST
Moon 7:37 PM CST (11/9) 9:39 AM CST (11/9)
Length of Visible Light 10h 59m
Length of Day
9h 59m
Waning Gibbous, 91% of the Moon is Illuminated
Nov 9
Waning Gibbous
Nov 14
Last Quarter
Nov 22
New
Nov 29
First Quarter
Dec 6
Full

Hourly Weather History & Observations

Time (CST) Temp. Windchill Dew Point Humidity Pressure Visibility Wind Dir Wind Speed Gust Speed Precip Events Conditions
12:15 AM 39.2 °F 32.0 °F 26.6 °F 61% 29.87 in 10.0 mi SSW 11.5 mph - N/A   Overcast
12:35 AM 37.4 °F 29.8 °F 26.6 °F 65% 29.86 in 10.0 mi SSW 11.5 mph 17.3 mph N/A   Scattered Clouds
12:55 AM 37.4 °F 30.8 °F 26.6 °F 65% 29.85 in 10.0 mi SSW 9.2 mph - N/A   Clear
1:15 AM 37.4 °F 30.3 °F 26.6 °F 65% 29.84 in 10.0 mi SSW 10.4 mph - N/A   Clear
1:35 AM 37.4 °F 27.8 °F 26.6 °F 65% 29.82 in 10.0 mi SSW 17.3 mph - N/A   Clear
1:55 AM 39.2 °F 30.8 °F 26.6 °F 61% 29.81 in 10.0 mi SSW 15.0 mph 20.7 mph N/A   Clear
2:15 AM 39.2 °F 31.2 °F 28.4 °F 65% 29.81 in 10.0 mi SSW 13.8 mph 20.7 mph N/A   Clear
2:35 AM 39.2 °F 32.5 °F 28.4 °F 65% 29.81 in 10.0 mi SW 10.4 mph 18.4 mph N/A   Clear
2:55 AM 37.4 °F 29.8 °F 28.4 °F 70% 29.80 in 10.0 mi SW 11.5 mph - N/A   Clear
3:15 AM 39.2 °F 31.6 °F 28.4 °F 65% 29.79 in 10.0 mi WSW 12.7 mph - N/A   Clear
3:30 AM 39.2 °F 31.2 °F 28.4 °F 65% 29.78 in 10.0 mi WSW 13.8 mph - N/A   Clear
3:35 AM 39.2 °F 31.6 °F 28.4 °F 65% 29.79 in 10.0 mi WSW 12.7 mph - N/A   Clear
3:55 AM 39.2 °F 30.5 °F 28.4 °F 65% 29.78 in 10.0 mi WSW 16.1 mph - N/A   Clear
4:15 AM 39.2 °F 31.6 °F 28.4 °F 65% 29.77 in 10.0 mi WSW 12.7 mph 18.4 mph N/A   Clear
4:35 AM 39.2 °F 32.0 °F 28.4 °F 65% 29.77 in 10.0 mi WSW 11.5 mph - N/A   Clear
4:55 AM 39.2 °F 31.6 °F 28.4 °F 65% 29.77 in 10.0 mi WSW 12.7 mph - N/A   Clear
5:15 AM 39.2 °F 32.0 °F 28.4 °F 65% 29.78 in 10.0 mi WSW 11.5 mph - N/A   Clear
5:55 AM 39.2 °F 32.5 °F 30.2 °F 70% 29.78 in 10.0 mi West 10.4 mph - N/A   Partly Cloudy
6:15 AM 39.2 °F 33.6 °F 30.2 °F 70% 29.77 in 10.0 mi WSW 8.1 mph - N/A   Scattered Clouds
6:35 AM 37.4 °F 30.8 °F 30.2 °F 75% 29.77 in 10.0 mi WSW 9.2 mph - N/A   Partly Cloudy
6:50 AM 37.4 °F 30.8 °F 28.4 °F 70% 29.77 in 10.0 mi WSW 9.2 mph - N/A   Clear
6:55 AM 37.4 °F 30.3 °F 28.4 °F 70% 29.77 in 10.0 mi WSW 10.4 mph - N/A   Clear
7:15 AM 37.4 °F 30.3 °F 28.4 °F 70% 29.77 in 10.0 mi WSW 10.4 mph - N/A   Clear
7:35 AM 37.4 °F 30.3 °F 30.2 °F 75% 29.77 in 10.0 mi West 10.4 mph - N/A   Clear
7:55 AM 37.4 °F 30.3 °F 30.2 °F 75% 29.77 in 10.0 mi West 10.4 mph - N/A   Clear
8:15 AM 37.4 °F 30.3 °F 30.2 °F 75% 29.77 in 10.0 mi West 10.4 mph - N/A   Clear
8:35 AM 39.2 °F 32.5 °F 32.0 °F 75% 29.77 in 10.0 mi West 10.4 mph - N/A   Clear
8:55 AM 41.0 °F 34.7 °F 32.0 °F 70% 29.79 in 10.0 mi WNW 10.4 mph - N/A   Clear
9:15 AM 41.0 °F 35.8 °F 32.0 °F 70% 29.79 in 10.0 mi WNW 8.1 mph - N/A   Clear
9:35 AM 42.8 °F 38.6 °F 32.0 °F 66% 29.78 in 10.0 mi WNW 6.9 mph - N/A   Clear
9:55 AM 42.8 °F 39.3 °F 32.0 °F 66% 29.78 in 10.0 mi WNW 5.8 mph - N/A   Clear
10:15 AM 44.6 °F 40.2 °F 32.0 °F 61% 29.80 in 10.0 mi WNW 8.1 mph - N/A   Clear
10:35 AM 44.6 °F 40.7 °F 32.0 °F 61% 29.79 in 10.0 mi NNW 6.9 mph - N/A   Clear
10:55 AM 44.6 °F 40.7 °F 32.0 °F 61% 29.78 in 10.0 mi NNW 6.9 mph - N/A   Clear
11:15 AM 44.6 °F 40.7 °F 32.0 °F 61% 29.78 in 10.0 mi North 6.9 mph - N/A   Clear
11:35 AM 44.6 °F 41.4 °F 32.0 °F 61% 29.77 in 10.0 mi NNW 5.8 mph - N/A   Clear
11:55 AM 46.4 °F 43.5 °F 32.0 °F 57% 29.78 in 10.0 mi NNW 5.8 mph - N/A   Clear
12:15 PM 46.4 °F 44.3 °F 32.0 °F 57% 29.78 in 10.0 mi WNW 4.6 mph - N/A   Clear
12:35 PM 46.4 °F 44.3 °F 32.0 °F 57% 29.78 in 10.0 mi NW 4.6 mph - N/A   Clear
12:55 PM 46.4 °F 44.3 °F 32.0 °F 57% 29.78 in 10.0 mi North 4.6 mph - N/A   Clear
1:15 PM 48.2 °F - 32.0 °F 54% 29.77 in 10.0 mi North 5.8 mph - N/A   Partly Cloudy
1:35 PM 48.2 °F - 32.0 °F 54% 29.77 in 10.0 mi NE 6.9 mph - N/A   Partly Cloudy
1:55 PM 48.2 °F - 32.0 °F 54% 29.75 in 10.0 mi NNE 8.1 mph - N/A   Mostly Cloudy
2:15 PM 48.2 °F - 30.2 °F 50% 29.75 in 10.0 mi NE 8.1 mph - N/A   Mostly Cloudy
2:35 PM 48.2 °F - 30.2 °F 50% 29.76 in 10.0 mi Variable 4.6 mph - N/A   Mostly Cloudy
2:55 PM 48.2 °F - 32.0 °F 54% 29.74 in 10.0 mi ENE 6.9 mph - N/A   Scattered Clouds
3:15 PM 48.2 °F - 32.0 °F 54% 29.74 in 10.0 mi ENE 10.4 mph - N/A   Clear
3:35 PM 46.4 °F 41.5 °F 32.0 °F 57% 29.74 in 10.0 mi ENE 10.4 mph - N/A   Clear
3:55 PM 46.4 °F 41.9 °F 32.0 °F 57% 29.73 in 10.0 mi ENE 9.2 mph - N/A   Scattered Clouds
4:15 PM 46.4 °F 42.9 °F 30.2 °F 53% 29.74 in - East 6.9 mph - N/A   Mostly Cloudy
4:35 PM 46.4 °F 42.4 °F 32.0 °F 57% 29.74 in 10.0 mi East 8.1 mph - N/A   Mostly Cloudy
4:55 PM 44.6 °F 40.7 °F 30.2 °F 57% 29.73 in 10.0 mi East 6.9 mph - N/A   Scattered Clouds
5:15 PM 44.6 °F 40.2 °F 32.0 °F 61% 29.74 in 10.0 mi ENE 8.1 mph - N/A   Mostly Cloudy
5:35 PM 44.6 °F 40.2 °F 32.0 °F 61% 29.74 in 10.0 mi ENE 8.1 mph - N/A   Mostly Cloudy
5:55 PM 42.8 °F 36.6 °F 32.0 °F 66% 29.74 in 10.0 mi ENE 11.5 mph - N/A   Mostly Cloudy
6:15 PM 42.8 °F 36.2 °F 32.0 °F 66% 29.73 in 10.0 mi ENE 12.7 mph - N/A   Overcast
6:35 PM 41.0 °F 33.5 °F 32.0 °F 70% 29.72 in 10.0 mi ENE 13.8 mph - N/A   Mostly Cloudy
6:55 PM 41.0 °F 33.1 °F 32.0 °F 70% 29.72 in 10.0 mi ENE 15.0 mph - N/A   Partly Cloudy
7:15 PM 39.2 °F 31.2 °F 33.8 °F 81% 29.72 in 10.0 mi ENE 13.8 mph - N/A   Clear
7:35 PM 39.2 °F 31.2 °F 33.8 °F 81% 29.72 in 10.0 mi ENE 13.8 mph 19.6 mph N/A   Clear
7:55 PM 39.2 °F 31.6 °F 33.8 °F 81% 29.72 in 10.0 mi ENE 12.7 mph - N/A   Scattered Clouds
8:15 PM 37.4 °F 29.3 °F 33.8 °F 87% 29.73 in 10.0 mi ENE 12.7 mph 18.4 mph N/A   Scattered Clouds
8:35 PM 37.4 °F 28.5 °F 33.8 °F 87% 29.73 in 10.0 mi ENE 15.0 mph - N/A   Scattered Clouds
8:55 PM 37.4 °F 27.8 °F 33.8 °F 87% 29.72 in 10.0 mi ENE 17.3 mph - N/A   Scattered Clouds
9:15 PM 37.4 °F 28.9 °F 33.8 °F 87% 29.72 in 10.0 mi ENE 13.8 mph - N/A   Partly Cloudy
9:35 PM 37.4 °F 28.2 °F 33.8 °F 87% 29.71 in 10.0 mi ENE 16.1 mph - N/A   Partly Cloudy
9:55 PM 37.4 °F 28.5 °F 33.8 °F 87% 29.71 in 10.0 mi ENE 15.0 mph - N/A   Mostly Cloudy
10:15 PM 37.4 °F 28.9 °F 33.8 °F 87% 29.70 in 10.0 mi East 13.8 mph - N/A   Scattered Clouds
10:35 PM 37.4 °F 29.3 °F 33.8 °F 87% 29.69 in 10.0 mi East 12.7 mph - N/A   Clear
10:50 PM 37.4 °F 28.2 °F 33.8 °F 87% 29.68 in 10.0 mi East 16.1 mph - N/A   Clear
11:15 PM 37.4 °F 27.8 °F 33.8 °F 87% 29.66 in 10.0 mi East 17.3 mph - N/A   Partly Cloudy
11:35 PM 37.4 °F 28.5 °F 33.8 °F 87% 29.64 in 10.0 mi East 15.0 mph - N/A   Partly Cloudy
11:55 PM 37.4 °F 28.5 °F 33.8 °F 87% 29.64 in 10.0 mi East 15.0 mph - N/A   Partly Cloudy